Overview Statistics Trail Chart Weather Telemetry Raw packets
 

This is the latest recevied weather packets stored in our database for station/object KE8AFF-13. If no packets are shown the sender has not sent any weather packets the latest 10 day(s).

<< 102 103 104 105 106 107 108 >>
Time Temp. Humidity Pressure Rain* Wind** Luminosity Snow
1787834381 20.56° C 97% 1013.7 hPa 0 mm - 167 W/m² -
1787834076 20° C 97% 1013.6 hPa 0 mm - 90 W/m² -
1787833772 20° C 97% 1013.6 hPa 0 mm - 81 W/m² -
1787833467 20° C 98% 1013.6 hPa 0 mm - 73 W/m² -
1787833162 20° C 98% 1013.5 hPa 0 mm - 66 W/m² -
1787832859 20° C 98% 1013.6 hPa 0 mm - 59 W/m² -
1787832554 19.44° C 99% 1013.3 hPa 0 mm - 55 W/m² -
1787832253 19.44° C 99% 1013.1 hPa 0 mm - 52 W/m² -
1787831950 19.44° C 99% 1013 hPa 0 mm - 47 W/m² -
1787831646 18.89° C 99% 1013.3 hPa 0 mm - 43 W/m² -
1787831345 18.89° C 99% 1013.3 hPa 0 mm - 41 W/m² -
1787831042 18.89° C 99% 1013 hPa 0 mm - 35 W/m² -
1787830741 18.89° C 99% 1013 hPa 0 mm - 31 W/m² -
1787830439 18.89° C 99% 1013 hPa 0 mm - 26 W/m² -
1787830134 18.89° C 99% 1012.9 hPa 0 mm - 22 W/m² -
1787829834 18.89° C 99% 1013.1 hPa 0 mm - 18 W/m² -
1787829533 18.89° C 99% 1012.7 hPa 0 mm - 16 W/m² -
1787829230 18.89° C 99% 1013 hPa 0 mm - 12 W/m² -
1787828930 18.89° C 99% 1012.8 hPa 0 mm - 8 W/m² -
1787828626 18.89° C 99% 1012.9 hPa 0 mm - 5 W/m² -
1787828321 18.89° C 99% 1012.7 hPa 0 mm - 2 W/m² -
1787828013 18.89° C 99% 1012.8 hPa 0 mm - 0 W/m² -
1787827702 18.89° C 99% 1012.7 hPa 0 mm - 0 W/m² -
1787827398 18.89° C 99% 1012.8 hPa 0 mm - 0 W/m² -
1787827092 18.89° C 99% 1012.5 hPa 0 mm - 0 W/m² -

* Rain latest hour (hover to see other rain measurements)
** Current wind speed in m/s (hover to see current wind gust speed)